Simultaneous Nadir Overpasses (SNOs) Predictions

Prediction of SNOs between AQUA and NOAA-19 Satellite Orbit:

Table of predicted SNOs for the next 14.0 days since TLE Epoch: 1/28/2023
Index Date (AQUA) Time (AQUA) Lat,Lon (AQUA) SZA (AQUA ) Date (NOAA-19) Time (NOAA-19) Lat,Lon (NOAA-19) SZA (NOAA-19 ) Distance(km) Time Diff (sec)
1 01/28/2023 20:31:06 -76.82, 40.15 84.72 01/28/2023 20:30:12 -76.84, 40.13 84.68 2.56 54
2 01/28/2023 21:20:34 76.90,-152.51 95.38 01/28/2023 21:21:10 76.91,-152.35 95.36 4.18 36
3 01/31/2023 02:03:41 76.81, 137.06 94.68 01/31/2023 02:02:54 76.85, 137.05 94.73 4.21 47
4 01/31/2023 02:53:07 -76.87, -55.51 85.27 01/31/2023 02:53:53 -76.87, -55.62 85.28 2.62 46
5 02/02/2023 07:36:14 -76.82,-126.08 85.95 02/02/2023 07:35:36 -76.83,-126.16 85.93 2.36 38
6 02/02/2023 08:25:42 76.90, 41.25 94.15 02/02/2023 08:26:35 76.89, 41.38 94.12 3.42 53
7 02/04/2023 13:08:48 76.84, -29.28 93.43 02/04/2023 13:08:19 76.82, -29.27 93.42 1.68 29
8 02/04/2023 13:58:14 -76.90, 138.16 86.52 02/04/2023 13:59:16 -76.88, 138.24 86.55 2.56 62
9 02/06/2023 18:41:19 -76.82, 67.67 87.27 02/06/2023 18:40:59 -76.83, 67.66 87.26 0.89 20
10 02/06/2023 19:30:46 76.87,-124.85 92.77 02/06/2023 19:31:59 76.89,-124.81 92.78 3.37 73
11 02/09/2023 00:13:51 76.83, 164.52 92.04 02/09/2023 00:13:43 76.81, 164.49 92.03 1.97 8



Historial Predications of SNOs between AQUA and NOAA-19
